Torna al catalogo

COSMOS 1275 DEB

AttivoPO
NORAD 12650·DEBRIS·🇷🇺 Russia

Lanciato Jun 4, 1981 da Plesetsk Cosmodrome

Loading…

Prossimi Passaggi (prossime 24 ore)

TLE

AggiornatoSource: Space-Track

Epoca: Sep 14, 2026, 04:25 UTC

1 12650U 81053E   26257.18443397  .00000271  00000-0  23840-3 0  9992
2 12650  82.9388 164.8136 0063462 295.9967 217.4976 13.81092954263527

Traccia COSMOS 1275 DEB in tempo reale con AllMySat

Download on the App Store